This is the latest recevied weather packets stored in our database for station/object KK6LZB. If no packets are shown the sender has not sent any weather packets the latest 10 day(s).
| Time | Temp. | Humidity | Pressure | Rain* | Wind** | Luminosity | Snow |
|---|---|---|---|---|---|---|---|
| 1777914020 | 17.22° C | 66% | 1017.7 hPa | 0 mm | - | 444 W/m² | - |
| 1777913715 | 16.67° C | 70% | 1017.9 hPa | 0 mm | - | 385 W/m² | - |
| 1777913413 | 17.22° C | 70% | 1017.7 hPa | 0 mm | - | 348 W/m² | - |
| 1777913109 | 17.78° C | 66% | 1017.8 hPa | 0 mm | - | 324 W/m² | - |
| 1777912805 | 17.22° C | 67% | 1017.7 hPa | 0 mm | - | 473 W/m² | - |
| 1777912501 | 17.78° C | 67% | 1017.8 hPa | 0 mm | - | 450 W/m² | - |
| 1777912198 | 16.67° C | 68% | 1017.8 hPa | 0 mm | - | 436 W/m² | - |
| 1777911894 | 17.22° C | 68% | 1017.9 hPa | 0 mm | - | 387 W/m² | - |
| 1777911591 | 17.22° C | 72% | 1018 hPa | 0 mm | - | 254 W/m² | - |
| 1777911287 | 16.67° C | 72% | 1017.7 hPa | 0 mm | - | 297 W/m² | - |
| 1777910984 | 16.11° C | 73% | 1017.7 hPa | 0 mm | - | 318 W/m² | - |
| 1777910682 | 16.11° C | 73% | 1017.7 hPa | 0 mm | - | 151 W/m² | - |
| 1777910378 | 16.11° C | 79% | 1017.6 hPa | 0 mm | - | 175 W/m² | - |
| 1777910075 | 15.56° C | 77% | 1017.7 hPa | 0 mm | - | 95 W/m² | - |
| 1777909773 | 15.56° C | 78% | 1017.6 hPa | 0 mm | - | 119 W/m² | - |
| 1777909469 | 16.11° C | 80% | 1017.4 hPa | 0 mm | - | 56 W/m² | - |
| 1777909167 | 15.56° C | 79% | 1017.7 hPa | 0 mm | - | 95 W/m² | - |
| 1777908865 | 15.56° C | 80% | 1017.4 hPa | 0 mm | - | 150 W/m² | - |
| 1777908562 | 15.56° C | 78% | 1017.5 hPa | 0 mm | - | 87 W/m² | - |
| 1777908258 | 15° C | 79% | 1017.5 hPa | 0 mm | - | 89 W/m² | - |
| 1777907955 | 15.56° C | 79% | 1017.4 hPa | 0 mm | - | 98 W/m² | - |
| 1777907650 | 15.56° C | 79% | 1017.3 hPa | 0 mm | - | 108 W/m² | - |
| 1777907346 | 15° C | 81% | 1017.4 hPa | 0 mm | - | 97 W/m² | - |
| 1777907043 | 14.44° C | 81% | 1017.4 hPa | 0 mm | - | 84 W/m² | - |
| 1777906740 | 15° C | 82% | 1017.3 hPa | 0 mm | - | 57 W/m² | - |
* Rain latest hour (hover to see other rain measurements)
** Current wind speed in m/s (hover to see current wind gust speed)